Location: Easter Hill Village
(37.9235°N, 122.3444°W)
Time: 00:10:19
(UTC+00:00)

CENTAUR R/B - Pass Details

Date: 16 September 2019
Orbit: 780 x 1408 km, 63.4° (Epoch: 12 October)

Event Time Altitude Azimuth Distance (km) Brightness Sun altitude
Exits shadow 12:13:27 35° 247° (WSW) 1,429 2.8 -19.8°
Maximum altitude 12:15:48 57° 308° (NW) 1,114 2.6 -19.3°
Drops below altitude 10° 12:22:29 10° 26° (NNE) 2,917 5.6 -18.1°
Sets 12:25:26 0° 31° (NNE) 3,979 6.5 -17.5°
